GGSE 2

operational
NORAD ID: 1244 Int'l Des: 1965-016 Owner: NRO/NRL Country: US
LEOCIRCULAR

About GGSE 2

Description loading...

Live Position

Loading 3D Globe...

Upcoming Passes

Altitude History

Altitude vs Time

uPlot chart will show altitude changes over time

Two-Line Element Set

1 01244U 65016B 25314.69261913 .00000104 00000-0 11398-3 0 9991
2 01244 70.0783 291.7481 0020345 7.7681 352.3736 13.96110976 87561
Epoch: Nov 10, 2025 • Age: 22 hours

Current Status

Altitude 926.0 km
Velocity 7.38 km/s
Sub-Earth Point -8.75°S, 150.35°W
Type other

Large Constellations

Loading constellations...